Wind_Speed
27 28 28 28 28 28 29 29 28 28 29 28 28 27 27 26 26 26 27 27 28 28 29 29 30 31 32 32 29 27 25 24 24 23 24 23 23 23 22 22 21 21 20 20 20 21 21 22 22 23 23 23 23 23 23 23 23 23 24 23 23 21 20 18 17 17 18 19 19 19 18 17 17 16 15 14 13 13 14 15 15 15 16 17 20 23
26 27 27 27 27 27 28 28 27 27 27 28 28 27 27 27 27 28 28 27 27 27 27 27 28 30 32 32 30 27 25 25 24 24 24 24 23 23 22 22 22 21 21 21 21 21 21 22 22 22 23 23 24 24 24 23 23 24 24 24 23 22 21 19 18 18 18 19 19 19 19 18 17 16 15 14 14 13 14 15 16 16 16 16 19 23
25 26 27 27 26 26 26 27 27 26 26 26 26 26 26 27 27 27 27 27 27 27 27 26 27 28 29 30 28 26 25 25 25 25 25 24 24 23 23 22 22 22 21 21 21 21 21 22 22 22 23 23 24 24 24 24 24 24 24 24 23 23 22 21 20 19 19 19 19 20 19 19 18 17 16 15 14 13 14 16 17 17 17 18 20 23
25 25 26 26 26 25 26 26 26 26 26 25 25 25 25 26 26 27 27 27 27 28 27 27 26 26 27 27 27 26 25 25 25 25 25 24 24 23 23 23 22 22 21 21 21 21 21 21 22 22 23 23 24 24 25 25 25 24 24 24 24 23 23 22 21 20 20 20 20 20 21 20 19 18 16 15 14 14 14 16 17 17 17 18 20 23
26 25 26 26 25 25 26 26 25 25 25 24 24 24 24 24 25 26 27 27 27 27 27 26 25 25 25 26 26 26 25 25 25 25 25 24 24 24 23 23 22 21 21 21 20 20 20 21 21 22 23 23 24 24 25 25 25 25 25 25 25 24 24 23 22 21 20 20 20 21 22 22 21 18 16 15 14 14 15 16 17 17 18 18 20 23
27 26 26 25 25 25 25 25 24 23 23 23 23 23 23 24 24 25 25 26 26 26 26 26 25 25 25 25 25 24 24 25 25 24 24 24 24 23 23 22 21 20 20 19 19 19 20 20 21 21 22 22 23 23 24 24 25 25 25 25 25 25 24 23 22 21 21 21 21 22 23 23 22 19 17 15 14 15 15 16 17 18 18 18 19 22
27 27 26 25 25 25 25 24 23 22 21 21 21 22 23 23 23 24 24 25 26 26 26 25 25 24 23 23 23 23 24 24 24 24 23 23 23 22 22 21 20 19 18 18 18 19 19 20 20 20 20 20 21 21 22 23 23 24 24 24 24 24 24 23 22 21 21 21 21 22 23 24 23 20 17 15 14 14 15 17 18 18 18 17 18 21
27 27 27 26 25 25 25 24 23 22 20 20 20 22 23 23 23 24 24 25 25 25 24 23 23 23 22 23 23 23 24 23 23 23 23 23 22 22 21 19 18 17 17 18 18 18 19 19 19 19 20 20 20 20 21 21 22 23 23 23 23 23 23 23 22 22 21 21 21 22 23 24 24 22 18 16 15 14 15 17 18 19 18 17 17 19
27 27 27 26 25 24 23 23 22 20 19 20 20 21 22 23 24 24 24 24 23 22 21 21 22 23 23 23 23 22 22 22 21 22 22 22 22 22 21 19 18 18 18 18 18 18 19 20 20 20 20 20 20 20 21 21 22 22 23 23 23 23 23 23 23 22 21 21 21 22 23 24 25 23 20 17 15 15 15 17 18 18 18 17 16 18
27 26 25 24 23 21 19 19 19 19 20 20 21 21 21 21 22 22 22 22 21 20 19 20 21 22 23 22 22 21 21 21 21 21 22 22 22 21 20 19 18 18 18 18 19 20 21 21 21 21 21 21 21 22 22 22 22 23 23 23 23 23 24 24 23 23 22 22 21 22 23 24 25 24 21 18 16 15 16 17 18 18 18 17 16 17
24 23 21 19 17 16 16 17 19 21 21 21 21 21 20 20 19 19 19 20 20 20 19 19 20 21 22 22 22 21 20 21 22 23 22 21 20 19 18 17 17 18 19 21 21 22 22 21 21 21 21 22 22 22 22 23 23 23 24 24 24 24 24 24 24 23 23 22 22 22 23 24 25 24 22 19 17 16 16 17 18 18 18 17 16 17
20 17 15 14 14 16 17 19 21 21 21 20 18 18 19 18 18 17 17 18 19 20 19 20 20 21 22 22 22 21 21 22 22 22 21 19 17 16 17 18 20 22 23 23 23 23 21 20 19 19 20 20 21 22 22 22 23 23 23 24 24 24 24 24 24 24 23 23 23 23 23 24 25 25 23 20 18 17 17 17 18 18 17 17 17 17
14 13 13 14 16 18 19 20 20 20 19 17 15 15 16 17 18 17 17 18 19 20 20 21 22 22 22 22 21 21 21 21 20 19 18 17 17 17 18 20 22 23 24 24 24 23 22 20 19 17 17 18 19 20 21 21 22 22 23 23 23 24 24 24 24 24 24 24 23 23 24 25 25 26 24 22 19 18 17 17 18 18 18 17 17 17
11 13 15 16 18 19 20 20 19 17 17 16 16 16 17 18 18 18 17 18 19 20 20 21 22 22 22 20 20 20 20 19 18 18 17 17 18 19 19 20 21 22 22 22 23 23 22 21 19 18 17 17 18 19 19 20 21 21 22 22 23 23 24 24 24 24 24 24 24 24 24 25 26 26 26 24 21 19 18 18 18 18 18 17 17 18
14 15 14 14 16 19 19 19 17 16 16 17 17 18 18 19 18 18 17 17 18 19 20 20 21 22 20 19 17 16 17 17 16 16 17 18 19 19 18 19 21 21 21 21 22 23 23 21 21 20 19 18 17 17 18 19 19 20 21 21 22 22 23 23 24 24 24 24 24 24 24 25 26 27 27 25 23 20 19 18 18 18 18 18 18 18
18 17 14 12 14 17 17 16 15 15 16 17 17 17 17 18 18 18 17 17 18 18 17 17 16 16 16 16 15 13 13 14 14 16 17 19 19 18 17 18 20 21 21 21 22 23 23 22 21 21 20 19 18 16 16 17 18 19 19 20 21 21 22 22 23 23 23 23 23 23 23 24 26 27 28 27 25 22 20 18 18 18 18 18 18 19
18 16 14 12 12 14 16 16 17 17 18 18 18 18 18 18 19 19 19 18 17 16 15 12 9 6 9 13 14 11 10 12 14 16 17 19 19 18 17 17 19 20 21 22 22 22 22 22 21 20 20 19 17 15 15 16 17 17 18 19 19 20 21 21 22 22 22 22 22 22 23 24 26 27 28 28 26 23 21 19 18 18 18 19 19 19
14 13 12 12 13 16 19 20 20 20 20 20 20 20 20 20 20 20 19 18 16 14 13 12 9 6 5 7 11 13 11 12 14 16 18 19 20 19 18 17 18 20 21 22 22 22 21 21 21 20 19 17 16 15 16 16 17 17 18 18 19 20 20 21 21 21 21 21 22 22 23 24 26 27 29 28 27 24 22 19 18 18 18 19 19 20
15 16 16 17 18 20 21 21 20 20 20 20 20 20 20 20 20 20 19 18 17 15 14 12 11 11 11 12 15 16 14 14 15 16 17 19 20 20 18 17 17 19 20 20 20 20 20 19 19 18 17 17 17 17 18 18 18 18 19 19 20 20 20 21 21 21 21 21 21 22 23 24 26 28 29 29 28 25 23 20 19 18 18 19 19 20
18 18 19 19 19 20 20 21 22 22 21 21 21 20 19 19 19 19 19 18 17 17 17 15 15 15 16 17 18 17 15 14 14 16 17 19 21 21 19 17 16 17 18 19 19 19 18 18 18 18 18 18 19 19 20 20 20 20 20 20 20 21 21 21 22 22 21 21 21 22 23 24 26 28 30 30 29 26 24 21 19 18 18 19 19 20
18 19 20 20 20 20 21 23 23 23 21 20 19 18 18 18 18 18 19 18 18 18 18 17 17 18 19 19 19 18 16 15 15 16 17 18 19 19 18 16 15 16 18 19 19 18 18 18 20 21 21 21 21 21 20 20 20 21 21 21 21 21 21 22 22 22 22 22 22 22 23 24 26 28 30 30 29 27 25 22 20 19 18 19 19 20
20 21 22 23 22 22 23 23 22 20 19 18 18 18 19 19 18 19 19 19 19 18 18 18 18 20 20 20 21 20 19 18 17 17 16 14 16 18 17 15 14 16 18 19 19 19 19 20 21 22 22 21 21 20 20 20 20 21 21 21 21 21 22 22 23 23 23 22 22 22 23 24 26 28 30 30 30 28 26 23 21 19 19 19 19 20
23 22 23 23 22 21 20 20 19 21 23 24 25 25 24 22 22 22 22 21 20 20 20 20 21 21 22 22 21 21 20 19 18 17 14 9 12 16 16 14 14 16 18 20 19 19 20 20 21 21 21 20 20 20 20 21 21 21 21 21 21 22 22 23 24 24 24 24 23 23 23 24 26 28 30 31 30 29 27 24 22 20 19 19 20 20
20 20 20 21 22 24 25 27 28 29 29 29 28 27 25 25 24 24 24 23 22 21 20 20 20 21 21 21 20 18 17 16 16 14 12 10 12 15 16 15 15 16 19 20 19 19 19 20 20 20 20 20 21 21 21 21 21 21 21 21 21 21 22 23 24 25 25 25 25 24 24 25 26 28 30 31 31 30 28 26 23 21 20 20 20 20
23 24 25 26 26 26 26 27 27 27 25 22 18 16 16 18 19 20 21 21 20 19 18 17 17 16 17 17 16 15 15 14 13 13 12 11 13 16 17 15 15 16 19 20 20 19 19 19 20 20 21 22 23 23 22 22 21 21 20 20 20 21 21 22 24 25 26 26 26 25 25 25 26 28 30 31 31 31 29 27 24 22 21 21 20 20
25 25 24 24 24 24 25 26 26 25 25 23 22 20 18 16 16 16 16 16 15 15 14 12 11 12 15 16 15 15 15 14 13 12 12 11 12 15 18 16 16 16 18 20 19 18 17 19 20 21 22 24 25 24 22 21 19 18 17 17 17 17 18 20 22 24 26 26 26 26 26 26 27 28 30 31 31 31 30 28 26 24 22 21 21 21
23 23 23 24 24 24 25 25 25 25 25 24 23 21 20 19 18 17 16 16 15 14 13 9 7 10 13 12 13 14 14 13 11 11 12 12 13 15 17 17 16 16 17 18 18 17 17 19 21 23 24 25 25 23 20 17 14 12 12 12 13 14 16 18 20 23 25 26 27 27 26 26 27 28 30 31 32 32 31 29 27 25 23 22 22 22
21 21 21 21 22 22 22 22 22 22 21 21 21 20 19 18 17 16 15 15 14 14 13 9 7 7 7 7 11 15 15 14 14 13 13 13 13 14 17 16 15 14 15 16 17 18 19 20 22 24 25 24 22 18 15 11 9 9 10 12 15 16 16 17 19 21 23 25 26 27 27 27 27 29 30 32 32 32 32 30 28 25 23 22 22 22
20 20 20 20 20 20 20 20 20 20 19 19 19 19 18 17 16 15 15 14 13 12 12 11 10 8 7 11 14 17 17 17 17 16 15 13 13 14 16 14 12 11 11 13 16 18 19 19 20 21 21 19 16 13 11 10 11 13 14 15 16 16 17 17 18 19 21 24 26 27 27 27 27 29 30 32 33 33 32 30 28 25 23 23 23 23
20 21 21 21 21 21 21 21 21 20 18 18 17 17 17 17 17 17 17 15 13 12 12 13 13 12 12 11 11 11 12 15 14 12 12 11 10 11 12 10 9 9 10 10 10 11 13 15 15 15 13 12 11 12 13 15 17 18 18 18 17 17 17 18 18 18 20 22 24 26 27 27 27 29 30 32 33 33 33 31 28 25 23 23 23 23
20 20 20 20 21 21 21 21 21 20 19 18 17 17 17 17 17 18 18 16 15 14 14 14 15 15 13 7 4 4 4 9 9 7 7 7 8 10 11 10 11 11 11 8 5 3 6 8 9 9 8 10 13 15 18 19 20 20 20 19 17 16 16 17 17 18 19 20 23 25 26 27 27 28 30 32 33 34 33 31 28 25 23 23 23 23
19 18 18 19 20 20 20 19 19 20 20 19 19 18 17 17 17 17 16 16 16 15 15 15 15 16 15 11 8 7 6 10 10 8 8 9 11 12 13 12 12 12 12 10 7 5 4 3 7 12 13 15 17 19 20 20 19 19 18 18 17 16 14 14 15 16 17 19 21 24 26 27 27 28 30 32 33 34 34 32 29 26 24 24 23 23
18 18 18 19 19 19 19 19 19 19 19 19 19 19 18 18 17 16 16 17 17 16 16 16 15 15 15 15 15 15 15 16 15 13 12 12 13 13 14 13 12 12 12 11 12 10 7 6 11 17 19 19 18 18 18 18 17 17 16 16 16 16 14 12 13 14 16 18 20 23 25 26 27 28 30 31 33 33 33 32 30 27 26 25 24 23
18 18 18 18 18 18 18 18 18 18 17 17 17 17 17 17 17 17 17 17 18 18 18 17 16 15 15 15 15 17 19 19 17 15 14 14 14 13 14 13 12 12 11 11 11 11 11 13 14 15 16 19 19 18 17 16 16 15 14 14 15 16 15 13 12 13 15 17 20 22 24 26 28 28 29 31 32 33 33 32 30 29 29 28 26 23
18 18 18 17 17 17 17 16 16 16 16 16 16 16 16 16 17 18 18 18 19 19 20 20 19 18 17 16 15 16 18 18 16 14 14 15 14 14 14 13 13 12 10 10 9 9 9 12 14 14 13 16 18 18 16 15 13 13 13 13 14 15 15 14 13 13 15 17 20 22 24 26 28 29 30 31 31 32 32 31 31 30 30 30 28 25
17 17 17 17 16 16 15 15 15 15 15 15 15 16 16 16 17 18 18 19 19 20 21 21 22 22 21 20 19 19 20 20 19 17 16 16 16 15 14 14 14 12 11 11 11 9 7 9 13 15 13 11 12 15 16 14 12 12 13 14 15 15 15 14 14 14 16 18 20 22 24 25 27 28 30 31 31 31 31 31 31 31 31 30 29 27
17 17 17 16 16 15 15 15 15 15 15 16 16 16 17 17 18 18 19 19 20 20 21 22 22 23 24 25 25 25 25 24 23 22 20 20 19 18 17 16 16 15 13 13 12 12 10 8 9 11 11 9 8 10 14 15 15 14 15 15 16 16 16 16 15 16 17 18 19 21 23 24 26 27 28 29 30 30 30 30 31 31 30 29 28 28
17 16 16 16 16 15 15 15 16 16 16 17 17 18 18 19 19 19 19 20 20 21 21 22 23 24 24 25 26 28 29 29 29 28 27 26 25 23 21 19 19 18 16 16 15 14 12 8 7 7 6 9 12 14 16 16 16 15 16 16 18 19 20 18 16 15 17 18 18 20 22 23 24 25 26 27 27 28 28 29 30 30 29 28 28 28
17 16 16 16 16 16 16 15 16 17 18 19 19 19 19 19 19 19 19 19 20 20 21 22 23 24 25 25 26 27 28 29 30 30 30 29 28 27 25 22 21 20 19 18 18 17 15 11 8 6 6 7 11 15 18 16 15 15 16 17 19 20 20 16 14 13 15 17 17 18 21 23 23 23 24 25 25 26 26 28 29 30 29 29 28 29
17 17 17 17 17 17 17 17 17 18 19 20 19 19 19 18 18 18 19 18 18 19 20 20 22 23 23 24 25 25 26 27 28 28 29 29 30 29 28 25 23 21 20 20 19 19 17 16 15 15 14 10 11 14 16 16 16 15 15 14 14 14 14 14 15 15 15 16 16 17 20 22 23 23 24 25 25 26 27 27 27 28 29 29 28 27
18 18 18 18 18 18 18 18 18 19 19 19 18 18 18 17 17 17 18 17 17 17 17 18 19 20 21 22 23 24 25 26 26 26 27 28 29 30 29 28 26 24 22 20 20 20 19 18 18 18 18 17 17 17 18 18 18 16 15 13 13 15 17 20 20 19 16 15 15 16 18 20 22 23 24 25 26 27 28 28 27 27 28 29 28 26
18 18 19 19 19 19 19 19 19 18 18 17 17 17 17 17 16 16 16 16 16 16 16 16 16 16 17 19 20 21 22 23 24 25 26 27 28 29 30 29 28 26 23 21 20 21 21 20 19 19 19 18 16 16 17 19 19 18 16 15 15 17 18 20 20 17 15 15 15 16 17 19 22 24 25 26 27 27 28 27 27 27 28 29 29 28
19 19 20 20 20 20 19 19 18 17 17 17 16 16 16 17 17 17 16 16 16 16 16 15 15 15 15 16 17 19 20 21 21 22 23 24 25 27 28 29 29 28 25 22 20 20 21 21 21 20 20 19 17 16 17 19 19 18 17 16 15 13 10 13 14 13 12 13 14 15 17 19 22 24 26 27 27 27 27 28 29 29 29 29 29 28
19 20 20 20 20 19 19 18 17 17 17 16 16 16 17 18 18 17 16 16 16 16 16 15 15 15 15 15 15 16 18 18 19 19 19 20 21 23 25 27 28 28 28 25 21 19 19 19 20 21 21 19 18 18 19 19 19 18 17 17 16 15 13 12 13 13 12 13 13 14 17 20 22 24 25 26 26 26 27 28 28 29 28 28 28 27
19 20 20 20 19 19 18 18 17 17 17 16 16 17 17 18 18 17 16 16 16 17 16 16 15 13 12 13 14 15 16 17 17 17 17 17 18 19 20 22 24 26 28 27 26 22 19 18 19 20 19 18 18 19 20 20 20 19 18 18 18 18 19 19 18 17 17 16 15 15 17 20 21 22 23 24 25 25 26 26 27 27 28 27 27 27
19 19 20 20 20 19 19 18 18 17 17 17 17 17 17 18 18 17 17 16 16 16 16 16 14 12 10 12 13 14 15 16 16 16 17 17 17 17 18 19 21 23 25 27 28 27 25 22 21 20 18 17 18 21 22 22 20 19 19 18 18 18 18 20 21 21 21 20 18 17 17 20 21 22 22 24 25 25 25 26 27 27 28 28 28 29
19 19 20 20 20 20 20 19 18 18 17 17 17 17 17 18 18 17 17 16 16 16 16 15 14 12 12 13 13 13 13 14 15 16 17 17 17 17 18 18 19 21 23 25 27 28 29 28 26 22 19 16 16 19 22 22 21 20 19 18 17 17 18 19 21 21 20 20 20 19 18 20 21 21 22 23 23 24 25 26 27 28 29 29 30 30
18 19 19 20 20 20 20 20 19 18 17 17 17 17 17 17 17 17 16 16 16 15 15 14 13 13 13 14 14 14 14 14 15 16 17 17 17 17 17 18 18 20 21 23 25 27 29 30 30 28 25 21 18 18 20 21 21 20 20 19 18 18 18 20 20 19 19 20 21 22 21 20 20 21 21 21 20 21 23 25 27 28 30 30 31 32
18 18 19 19 19 20 20 20 20 19 18 17 17 17 17 17 17 16 16 16 16 15 14 13 13 13 13 13 14 15 15 15 15 16 16 16 16 16 16 17 17 18 19 20 22 24 27 29 31 32 32 29 25 22 21 21 21 20 20 19 19 19 19 19 19 18 18 20 22 24 23 22 21 21 20 19 19 20 22 24 26 28 29 31 32 33
18 18 18 18 18 19 19 20 19 19 18 18 18 17 18 18 18 17 16 16 15 15 14 14 13 13 13 13 14 15 14 14 14 15 15 16 16 15 15 15 15 15 15 15 17 18 19 22 25 30 34 35 33 28 24 22 21 20 20 20 20 19 19 19 19 19 19 20 22 23 24 23 22 21 20 20 19 20 21 22 24 27 29 31 33 34
18 18 18 18 18 18 19 19 19 18 18 18 18 18 18 18 18 17 17 16 15 15 15 14 14 13 13 13 14 15 15 15 15 15 16 16 17 16 15 15 14 13 10 9 8 8 7 7 10 16 24 33 37 35 30 25 21 19 18 19 20 20 19 18 19 19 20 20 21 22 22 22 22 22 22 21 19 17 18 20 23 26 29 31 33 35
Wind_Direction
287 289 291 291 291 291 291 290 290 290 291 292 293 294 296 296 296 297 298 300 301 302 303 304 305 306 307 308 307 306 304 304 303 303 303 303 302 302 301 299 297 295 292 290 287 285 284 282 281 279 277 276 274 273 272 272 272 273 275 278 282 284 284 280 275 271 268 268 270 273 277 280 283 286 290 295 290 276 263 259 253 249 248 247 246 243
288 289 290 290 290 289 289 289 289 288 288 289 291 293 295 296 297 298 300 300 301 301 301 301 302 304 305 307 307 305 304 304 303 303 302 302 301 300 298 297 295 293 290 288 285 283 281 279 277 276 274 273 271 270 270 270 270 271 272 275 278 280 282 280 276 272 268 268 269 271 273 277 280 283 287 294 293 285 270 261 252 245 241 238 238 237
290 290 290 291 290 288 287 289 288 287 286 287 289 291 294 295 297 298 299 300 300 299 299 299 300 301 302 304 303 302 302 303 303 302 302 301 299 298 297 295 294 292 289 286 283 281 279 277 275 274 272 271 270 268 268 268 268 269 270 272 274 276 278 278 276 273 270 268 268 269 270 272 275 279 284 290 293 288 277 265 256 249 243 238 234 231
288 288 289 290 289 287 285 286 287 287 287 287 288 290 292 294 296 297 298 298 298 298 298 298 298 298 299 299 300 300 300 300 301 301 300 299 298 297 296 295 293 290 287 284 281 279 276 274 273 272 271 269 268 267 266 266 266 266 267 268 270 272 274 274 274 272 271 269 268 266 266 266 269 274 280 287 290 288 280 269 260 254 249 243 236 230
285 285 286 287 287 286 284 285 286 286 287 287 288 289 292 293 294 295 296 297 297 297 297 297 296 296 296 296 297 298 298 299 299 299 298 298 297 297 296 294 291 288 285 282 279 276 273 271 270 269 268 267 266 264 263 262 262 262 262 264 266 268 270 271 271 270 269 268 267 265 263 263 265 269 276 283 287 286 279 271 263 258 255 249 240 231
282 282 282 283 284 284 284 284 285 286 287 287 288 290 292 293 293 294 295 296 296 296 295 295 295 294 294 294 295 297 297 298 298 297 297 297 297 296 295 293 290 286 282 280 276 273 270 268 267 267 267 266 264 262 260 259 258 257 258 259 262 264 266 267 268 268 267 266 266 265 263 262 262 265 271 279 284 283 277 270 264 260 258 254 244 232
280 280 280 280 280 280 282 282 283 284 286 288 290 292 293 293 293 293 293 294 295 294 294 294 293 293 293 294 295 296 297 297 297 296 296 296 296 295 294 291 288 284 280 277 273 271 270 270 271 272 271 269 266 263 260 258 257 256 256 257 259 261 263 264 265 266 265 265 265 264 263 261 261 263 269 275 280 280 275 269 263 260 259 257 247 234
279 279 279 278 278 279 281 282 282 283 285 288 291 293 295 295 295 294 294 294 294 293 293 293 293 293 293 294 296 297 297 297 296 296 295 296 296 295 294 291 287 282 278 275 273 274 277 280 281 281 279 275 271 267 262 259 257 256 256 257 258 259 261 262 263 264 264 264 264 263 262 260 259 261 266 272 276 276 273 268 263 260 260 258 251 238
273 275 275 275 276 279 281 282 282 283 285 287 289 292 294 296 296 297 296 295 294 292 292 293 293 294 294 295 297 297 296 294 293 293 294 294 294 294 293 290 286 282 279 279 283 288 290 290 288 284 280 277 274 269 264 260 257 257 257 258 259 258 259 261 262 263 263 262 262 262 260 259 258 259 264 269 273 273 271 267 263 260 260 259 253 242
265 267 270 272 274 276 278 281 284 286 288 288 288 289 290 293 295 297 297 295 294 293 292 291 292 294 295 296 296 296 294 292 291 290 291 291 291 290 288 287 285 285 286 289 292 294 292 290 286 282 277 274 271 267 263 260 258 257 258 260 259 258 258 259 260 261 261 261 260 260 258 257 256 257 261 267 271 272 270 267 263 261 260 259 254 246
263 264 268 272 275 276 277 280 285 288 289 290 289 289 288 288 290 293 295 295 295 294 293 291 291 292 294 295 296 295 293 292 292 291 291 291 289 287 285 285 287 290 292 293 293 291 289 285 281 277 273 271 269 266 263 261 259 258 257 257 257 257 257 257 257 259 259 259 258 257 257 255 255 255 258 264 268 270 269 266 263 261 260 259 256 249
265 268 272 277 281 282 282 284 286 288 290 290 290 290 289 288 288 288 289 291 293 294 294 292 291 290 290 292 293 293 292 291 291 291 292 291 289 287 286 287 289 291 293 294 294 293 291 287 281 275 270 267 265 264 263 261 259 258 257 256 256 256 255 255 256 257 258 257 257 256 255 254 253 253 256 261 265 267 267 265 262 260 260 259 257 252
269 274 278 281 282 284 285 287 289 289 288 287 286 287 288 289 289 287 285 286 288 290 293 294 293 291 289 289 290 290 290 289 289 289 289 287 286 286 287 289 290 292 293 294 295 295 295 293 287 279 271 265 261 259 259 259 258 256 255 255 254 254 253 253 254 255 256 255 255 254 253 252 252 252 254 258 262 264 264 262 261 260 259 259 257 254
279 282 284 284 285 286 287 287 287 285 283 282 282 283 285 288 288 287 284 283 285 288 291 292 292 291 290 289 287 286 286 286 286 287 285 284 285 286 289 290 291 291 292 292 292 293 294 293 289 283 277 270 263 258 254 253 253 253 253 252 251 250 250 251 251 251 252 252 252 252 251 250 250 250 252 255 258 260 260 260 259 258 259 259 257 255
290 290 289 288 287 286 285 284 281 279 279 280 282 283 284 286 286 285 284 284 286 289 291 291 290 289 289 288 286 285 284 283 284 286 285 285 286 287 289 290 290 290 290 289 289 290 292 290 287 285 283 278 271 263 256 252 250 249 249 249 249 248 247 247 247 248 248 249 249 249 248 247 247 248 250 252 254 256 257 257 256 257 257 258 257 254
292 290 287 286 284 284 283 281 280 280 282 283 283 283 283 284 284 283 283 284 286 288 289 289 289 290 290 289 287 285 285 282 284 287 289 288 288 289 290 290 290 289 289 288 287 288 289 288 287 286 285 282 277 269 261 256 252 250 249 249 248 247 246 246 246 246 246 246 247 246 245 244 245 246 248 250 251 253 254 254 254 255 256 257 256 253
287 284 282 282 284 285 286 286 286 285 285 285 284 282 280 280 280 280 280 281 282 283 283 283 284 288 291 292 291 288 286 287 288 290 290 290 289 290 291 289 288 287 288 286 285 285 286 285 285 285 284 282 277 271 264 259 256 255 253 251 249 248 247 246 246 246 246 246 245 244 243 241 242 244 246 248 249 250 251 252 252 253 255 256 256 253
281 282 284 286 288 288 288 287 286 285 284 283 282 280 278 276 275 276 276 276 275 276 276 277 277 277 284 290 289 287 287 287 288 290 290 289 289 290 291 289 286 285 285 284 283 283 283 283 283 283 282 279 276 271 267 263 260 258 256 253 252 250 248 247 247 247 246 246 244 243 241 239 239 241 243 246 247 248 249 250 250 252 254 256 255 252
284 284 284 284 284 284 284 283 282 281 280 279 278 277 275 273 272 271 270 270 269 269 270 272 273 274 276 279 283 285 286 283 285 287 288 288 289 290 291 289 286 284 282 281 281 281 281 281 281 280 278 276 274 271 268 265 263 261 259 257 255 253 251 249 248 247 246 245 244 242 240 238 237 239 241 243 245 246 247 248 249 251 253 255 256 253
283 280 278 277 279 280 280 279 278 277 276 274 273 272 270 269 269 268 268 267 267 268 269 270 271 272 274 276 280 282 284 283 283 285 287 287 288 289 290 288 285 283 281 280 280 280 280 280 279 277 275 274 272 270 269 267 265 263 261 259 257 255 252 250 248 247 246 244 243 241 239 236 236 237 240 242 243 245 246 247 248 249 251 254 256 254
282 278 275 274 274 275 277 278 277 275 273 272 270 267 266 266 266 267 268 268 268 268 269 268 268 270 272 275 277 280 283 283 285 286 286 286 285 286 288 287 284 282 282 281 281 281 281 280 279 278 277 276 274 273 271 269 267 265 263 261 258 255 253 250 247 245 244 243 242 240 238 236 235 236 238 240 242 243 244 245 246 248 249 252 254 255
277 276 275 272 269 269 272 275 276 276 276 274 270 266 265 265 267 269 270 270 269 269 268 268 268 270 272 274 277 279 280 278 277 279 282 282 283 284 287 288 287 285 283 283 283 284 283 282 281 280 279 277 275 273 272 270 268 267 264 262 259 256 252 249 246 244 242 241 240 239 237 235 234 235 237 239 241 242 243 244 245 246 248 250 253 254
270 270 272 272 271 271 274 279 282 282 280 275 269 266 263 263 264 266 267 268 268 268 268 269 270 271 272 273 275 276 276 271 267 267 272 275 280 284 288 290 290 287 284 284 285 287 288 285 282 280 279 277 275 273 272 271 270 268 266 263 260 256 252 248 244 242 239 238 237 236 235 233 233 234 236 238 239 241 242 243 244 245 247 249 252 254
279 280 283 284 283 282 282 282 281 278 275 270 265 262 261 260 260 260 261 262 262 263 265 268 270 271 271 272 272 272 271 267 262 261 265 271 278 283 287 290 290 287 284 285 287 290 289 286 282 280 279 278 277 276 276 275 273 271 267 264 261 256 252 248 244 240 237 235 234 232 231 230 231 232 234 236 238 240 241 242 243 245 246 248 251 254
291 289 288 287 286 284 281 279 278 278 279 280 283 284 280 273 269 265 264 262 261 262 263 266 268 270 272 274 275 274 274 271 265 261 263 271 278 282 285 287 287 286 286 287 289 290 288 285 283 281 280 281 282 282 281 279 276 273 269 265 260 256 251 247 243 239 236 234 232 230 229 228 228 230 232 235 237 238 240 241 242 244 246 247 251 254
291 289 288 289 289 290 290 291 293 294 296 300 303 304 301 297 290 283 277 272 270 270 270 270 270 274 278 279 279 279 279 277 270 263 264 272 280 283 284 285 285 285 286 288 289 288 286 285 284 283 282 283 286 287 286 283 279 274 268 263 258 255 252 247 242 239 236 233 231 229 227 226 226 228 230 233 235 237 238 240 241 243 246 248 251 255
294 293 294 296 297 297 297 298 297 297 297 296 295 295 296 297 295 289 283 280 279 279 278 277 277 278 280 279 278 278 279 278 273 268 268 274 279 281 282 283 283 283 284 286 287 287 287 286 284 284 284 285 288 291 290 288 283 276 270 266 266 265 261 253 245 240 236 233 230 228 226 225 225 226 228 231 234 236 237 239 241 243 246 249 252 255
301 301 301 301 301 300 298 296 295 295 294 292 291 291 291 291 288 283 278 279 280 279 275 273 275 280 281 279 280 281 281 278 274 272 272 272 273 274 276 279 280 280 283 288 291 292 289 284 282 282 284 287 291 294 296 296 291 283 276 274 272 270 264 256 248 241 236 233 230 227 225 224 224 225 226 229 232 234 236 238 240 242 245 249 253 255
307 306 305 304 304 303 302 301 301 300 297 293 290 287 285 282 278 275 276 280 283 281 276 273 274 277 281 283 284 283 280 276 273 270 266 263 262 266 271 274 276 280 291 299 302 299 292 284 280 280 283 287 291 293 292 287 280 276 275 273 269 263 256 250 245 240 236 232 229 227 225 224 224 224 225 228 230 232 235 237 239 242 244 248 252 254
309 308 306 306 305 305 305 304 304 303 300 295 291 286 282 279 278 279 281 284 284 280 275 273 272 273 277 282 285 282 277 274 272 267 258 251 255 265 273 278 285 296 308 311 309 303 297 290 284 281 281 286 287 284 283 282 282 282 284 283 278 268 255 246 240 237 235 231 229 226 225 225 225 225 226 227 229 231 233 235 238 241 243 247 249 251
309 307 305 304 304 304 304 303 303 302 301 299 295 291 286 283 281 281 280 279 275 269 267 267 268 268 270 273 277 274 272 274 272 266 258 257 264 274 280 287 291 294 297 298 300 306 303 299 294 289 288 291 291 290 290 292 294 296 298 298 292 279 261 248 241 238 235 232 229 227 226 226 226 227 227 227 228 229 231 233 236 238 240 243 245 247
308 306 303 303 302 302 301 300 300 300 300 299 297 295 291 287 282 279 275 270 265 261 260 261 263 263 263 261 260 263 266 270 270 268 270 274 276 277 279 281 283 283 282 274 270 277 293 303 299 298 298 297 296 295 295 296 297 300 303 303 299 290 274 256 246 241 237 234 230 227 226 226 227 228 228 227 227 228 229 232 234 235 236 238 239 241
308 307 305 303 302 301 300 299 298 298 297 296 295 294 291 288 283 277 273 268 262 258 254 256 258 260 260 259 259 261 264 266 267 268 268 270 273 274 275 274 275 276 276 269 263 261 266 275 290 295 297 297 295 294 293 293 295 297 301 301 299 296 289 271 254 245 241 237 233 229 226 226 226 228 228 228 228 228 229 230 232 232 233 233 233 234
309 308 306 305 303 302 300 300 299 298 296 294 292 290 288 285 282 277 273 268 263 258 254 252 253 257 259 260 261 263 264 265 265 264 262 261 263 268 270 269 269 270 272 270 264 261 263 270 280 289 295 296 295 292 290 290 292 296 299 299 297 296 294 284 266 251 246 243 238 232 227 224 224 225 227 228 228 228 228 229 230 231 232 231 229 228
311 310 309 307 305 303 302 302 302 300 298 295 292 289 286 283 280 277 274 270 266 261 258 254 252 252 255 258 262 265 266 266 265 262 259 256 258 263 267 266 265 265 266 268 267 266 268 272 276 282 290 295 295 292 290 290 292 296 297 296 294 292 291 287 274 259 251 246 241 234 228 224 222 222 224 225 226 227 227 228 229 230 231 230 228 225
312 312 311 309 307 306 305 305 305 304 302 299 296 294 290 286 282 279 276 273 269 265 262 259 256 254 253 253 257 261 264 266 266 263 259 255 256 260 264 265 264 263 264 266 266 267 270 275 278 279 283 287 291 292 292 292 294 294 293 293 293 291 289 284 276 266 257 248 238 231 227 223 220 220 221 222 224 225 226 227 228 229 229 228 228 227
314 313 312 311 310 309 309 309 309 308 306 304 302 300 297 293 289 286 282 279 276 272 268 265 262 259 256 255 256 258 262 265 265 263 260 256 255 257 260 263 263 261 259 261 264 267 269 274 278 278 277 274 278 285 290 294 295 294 291 292 293 292 287 281 271 262 258 249 236 226 222 220 218 218 219 221 222 224 225 226 227 228 227 227 228 228
316 315 314 314 314 314 313 313 312 311 309 307 306 304 302 299 296 293 289 286 283 279 275 271 268 265 263 261 260 261 263 265 265 264 262 259 256 254 255 258 260 258 254 255 257 261 265 268 273 273 272 271 272 275 281 287 291 291 291 293 292 290 288 284 275 263 257 251 238 224 217 214 214 214 215 217 219 220 221 223 224 225 226 227 229 231
318 317 316 317 317 317 316 314 312 311 310 309 308 307 305 302 300 297 294 291 288 284 280 276 273 271 270 268 267 266 266 266 266 266 264 261 257 254 253 254 256 255 253 251 251 253 256 258 261 265 269 274 275 276 278 280 282 286 291 294 293 289 287 285 279 270 264 256 244 226 213 209 208 209 210 212 213 213 214 216 218 220 221 223 226 230
321 319 319 319 319 318 316 313 312 312 311 311 310 308 307 305 303 301 299 295 292 288 285 281 278 276 275 273 272 270 269 269 268 267 265 262 259 256 253 251 252 253 252 251 248 247 247 251 254 258 261 266 273 276 278 277 277 281 288 291 290 286 283 282 277 271 265 260 248 229 212 206 204 205 207 208 209 209 210 210 211 212 214 214 216 220
322 322 321 320 319 318 316 314 313 313 313 311 311 309 308 306 304 303 302 301 297 293 290 286 282 278 277 275 274 273 272 271 270 269 266 264 261 258 254 251 250 251 250 249 247 245 243 246 250 254 257 260 265 271 273 274 274 275 277 276 278 281 285 284 281 274 265 258 249 235 217 206 202 204 205 207 208 209 209 208 207 208 210 211 211 211
323 323 322 320 319 317 316 316 316 316 316 314 312 310 309 308 306 304 303 302 300 298 296 291 286 282 279 277 277 276 274 273 272 271 269 267 264 260 256 253 250 249 248 246 246 245 244 244 247 250 252 255 259 265 269 270 270 269 267 266 273 282 286 283 280 276 265 256 249 239 223 208 202 203 204 205 206 207 208 208 208 208 208 210 211 211
322 322 321 320 319 319 319 319 320 320 319 318 315 313 312 311 311 309 307 303 301 301 299 297 293 289 285 284 283 283 281 280 277 275 272 270 267 263 258 255 252 249 245 243 244 245 245 245 245 246 249 250 253 257 263 267 268 266 262 261 264 270 274 276 278 279 271 260 251 241 226 212 204 202 202 203 204 205 205 207 209 210 210 209 209 211
320 321 322 322 322 323 324 323 323 322 321 319 316 315 315 316 315 314 310 306 305 304 302 301 299 295 291 288 287 288 289 288 286 282 277 274 270 266 262 258 255 251 246 242 241 244 245 245 245 246 246 246 248 252 256 261 263 263 260 257 254 252 253 264 275 280 277 268 256 243 230 217 208 202 199 200 201 202 204 207 209 211 211 211 210 210
322 324 326 327 328 328 327 326 325 324 322 319 317 316 317 318 318 316 312 308 307 307 305 304 303 300 295 292 293 295 296 295 293 290 287 282 277 272 267 262 258 254 250 245 243 242 243 244 246 247 246 244 243 246 250 255 258 259 258 255 251 249 250 257 263 268 268 265 258 247 233 221 211 203 196 197 200 203 204 205 207 208 208 208 208 209
327 328 330 331 331 330 329 327 326 325 323 322 320 319 319 319 319 317 314 311 308 307 307 306 304 299 295 296 298 300 300 300 299 297 295 292 288 284 277 270 264 259 254 250 247 245 243 244 245 246 246 244 244 245 246 248 251 254 255 253 250 249 250 252 253 253 253 253 252 246 235 224 214 204 198 197 200 202 203 204 204 204 205 205 207 208
330 330 331 332 332 332 331 330 329 327 325 323 321 321 321 321 320 318 316 314 311 309 309 308 304 298 294 295 297 298 299 299 298 298 298 296 293 290 285 280 274 267 261 256 253 250 248 246 244 243 241 242 245 247 247 245 245 246 248 248 246 245 246 247 247 246 246 246 245 243 237 228 218 208 200 197 197 199 201 202 203 203 203 204 205 207
330 330 331 332 332 333 333 333 332 329 326 323 322 322 322 322 321 319 317 316 314 312 311 309 305 301 297 296 295 294 294 294 294 295 295 295 294 291 288 284 279 274 268 263 258 255 252 249 246 242 238 237 240 245 247 244 242 241 242 242 241 240 242 245 245 245 243 242 240 238 236 232 222 210 200 193 193 195 198 198 200 201 201 202 203 205
330 331 331 332 333 333 334 334 333 330 327 325 324 323 322 323 322 320 318 316 315 313 311 308 306 303 299 297 296 295 293 291 290 291 291 292 292 291 290 286 283 278 273 268 264 260 257 254 250 245 239 235 235 240 244 243 241 239 238 237 236 237 240 243 244 243 240 238 237 236 235 235 227 213 199 191 190 193 194 194 195 197 199 200 202 203
332 331 332 333 334 334 334 333 332 330 328 326 325 324 323 323 323 321 319 317 316 314 311 307 304 301 298 297 296 296 295 294 292 291 291 293 294 293 291 290 287 282 277 272 267 262 257 253 250 247 242 236 233 233 236 239 239 237 236 235 234 234 236 240 242 240 235 233 232 232 233 236 231 218 204 195 193 193 192 191 191 194 197 200 201 202
333 333 334 335 335 335 335 335 333 331 329 328 326 325 324 324 323 323 322 321 319 316 311 308 303 299 296 295 295 296 297 298 297 296 295 296 297 296 293 291 289 287 284 280 271 262 249 244 243 242 240 237 233 230 228 230 231 232 233 233 232 231 232 235 237 236 233 230 228 228 229 232 229 219 205 199 195 194 193 190 190 193 196 199 201 202
Height
729 726 724 723 722 720 716 715 714 713 710 708 706 706 705 703 702 701 700 699 697 696 694 692 690 687 686 684 683 683 682 681 681 680 679 678 677 676 676 675 674 674 673 673 672 672 671 671 671 670 670 670 670 671 671 671 671 671 671 671 671 671 671 671 672 672 673 673 673 673 673 673 673 673 673 673 674 674 674 674 675 675 676 677 678 679
727 725 723 721 720 718 715 713 712 711 709 707 705 704 703 701 700 699 698 697 696 694 693 691 689 686 685 683 681 681 680 680 679 678 677 676 676 675 674 674 673 673 672 672 671 671 671 671 670 670 670 670 669 669 670 670 670 670 670 670 670 670 670 671 671 671 672 672 672 672 672 672 672 672 672 672 672 673 673 673 673 673 674 675 676 677
726 723 721 719 718 716 713 711 710 709 708 706 704 702 701 700 698 697 696 695 693 692 691 690 688 686 684 682 681 680 679 678 677 677 676 675 675 674 673 673 672 671 671 671 671 670 670 670 669 669 669 668 668 668 668 668 669 669 669 669 669 669 669 670 670 670 671 671 671 671 671 671 671 671 671 671 671 671 672 672 672 672 673 674 675 676
724 722 719 717 715 714 711 709 708 706 705 704 702 701 700 699 697 696 694 693 692 691 689 688 687 686 684 682 680 679 678 677 676 676 675 674 673 673 672 671 671 671 670 670 669 669 669 668 668 668 667 667 667 667 667 667 667 667 668 668 668 668 669 669 669 669 670 670 670 670 670 670 670 670 670 669 670 670 671 671 671 671 672 673 674 675
722 720 717 715 713 711 708 707 706 704 703 702 701 699 698 697 696 694 693 691 690 689 687 686 686 684 683 681 680 678 678 677 676 675 674 673 672 671 671 670 670 669 669 668 668 668 667 667 667 666 666 666 666 666 666 666 666 666 666 667 667 667 667 667 667 668 668 668 669 669 669 669 669 668 668 668 669 669 670 670 670 670 671 672 673 674
719 717 715 713 711 708 706 705 704 703 701 700 699 698 697 696 695 693 691 690 689 687 686 685 683 682 681 680 679 678 676 676 675 674 673 672 671 670 669 669 668 668 667 667 666 666 666 666 665 665 665 664 664 664 664 664 664 665 665 665 666 666 666 666 666 666 666 667 667 667 667 667 667 667 667 667 668 668 669 669 669 669 671 671 671 672
716 714 713 711 709 706 704 703 702 701 700 698 697 696 695 694 693 692 691 689 687 686 684 683 681 681 680 679 678 676 675 674 673 672 671 670 669 668 668 667 667 666 666 666 665 665 664 664 663 663 662 662 662 662 662 662 662 663 663 663 664 664 664 664 664 665 665 665 666 666 665 665 666 666 666 666 666 667 667 667 668 669 670 670 670 670
713 711 710 708 706 704 702 701 700 700 699 698 696 695 693 692 691 690 689 688 686 685 683 681 680 679 678 677 676 675 674 672 671 670 669 668 667 666 666 666 665 665 665 664 664 663 662 661 661 660 660 660 660 660 660 660 660 661 661 661 661 662 662 662 662 663 663 664 664 664 664 664 665 665 665 665 665 666 666 666 667 668 669 668 668 668
711 708 706 705 704 702 700 698 698 698 698 697 696 694 692 691 689 688 687 686 685 684 682 681 679 677 676 676 675 674 673 671 670 669 668 666 666 665 664 664 664 663 663 662 661 660 659 659 658 658 658 658 658 658 658 658 658 658 659 659 659 660 660 660 661 661 661 662 662 662 662 663 663 664 664 664 664 665 665 666 666 666 666 666 666 666
707 705 703 701 701 700 699 697 696 696 696 696 694 693 692 690 688 687 685 684 683 682 681 680 678 676 674 673 673 672 671 670 669 668 667 666 665 664 663 663 662 661 661 660 659 658 658 657 657 656 656 656 656 656 656 656 656 657 657 657 658 658 658 659 659 659 660 660 660 661 661 661 662 662 662 662 663 663 663 664 664 664 664 664 664 665
703 702 701 699 699 698 697 696 695 694 694 693 692 691 691 690 688 686 684 682 681 680 679 678 677 675 673 672 671 671 670 668 667 666 665 664 663 663 662 661 661 660 659 658 658 657 656 656 655 655 654 654 654 654 654 655 655 655 655 656 656 656 656 656 657 657 658 658 659 659 660 660 660 661 661 661 661 661 661 662 662 662 662 662 662 663
701 700 699 698 697 696 696 694 693 692 692 691 691 689 688 688 687 686 684 681 680 678 677 676 675 674 673 671 670 669 668 667 666 664 663 662 661 661 661 660 659 658 657 656 656 655 654 654 653 653 652 652 652 652 652 652 653 653 653 653 654 654 654 655 655 655 656 656 656 657 658 658 658 659 659 659 659 659 660 660 660 660 661 661 661 662
699 699 698 697 696 695 693 692 691 691 690 690 689 687 686 686 685 684 683 681 679 677 676 675 673 672 671 671 669 668 667 666 664 663 662 661 660 660 659 658 657 656 655 654 653 652 652 651 651 650 650 650 650 650 650 650 651 651 651 651 652 652 653 653 653 653 654 654 655 655 656 656 656 657 657 658 658 658 658 658 658 659 659 659 660 661
698 698 696 695 693 692 691 691 690 689 688 687 687 686 685 684 683 682 681 679 677 676 676 674 671 670 669 668 668 667 666 664 663 662 661 660 659 658 658 656 655 654 653 652 651 650 649 649 648 648 647 647 647 647 647 647 648 648 649 649 650 650 651 651 651 652 652 652 653 653 653 654 655 655 656 656 656 656 656 657 657 657 658 658 659 660
697 696 694 692 691 690 689 688 687 686 686 685 685 684 683 682 681 681 680 677 676 675 674 672 670 668 667 666 666 666 665 663 662 661 659 658 657 657 656 655 654 652 651 650 649 647 647 647 646 646 645 645 644 644 645 645 645 646 646 647 647 648 649 649 650 650 650 651 651 651 651 652 653 654 654 655 655 655 655 656 656 656 656 657 658 658
695 694 692 690 688 687 687 687 686 685 684 683 683 682 682 681 680 679 678 676 675 674 673 671 669 666 664 664 664 664 663 662 661 659 658 656 655 655 655 654 652 650 649 648 647 646 645 644 644 643 643 642 642 642 642 643 643 644 644 645 645 646 646 647 647 648 648 649 649 649 650 651 651 652 652 653 653 653 654 654 655 655 656 656 656 657
693 692 690 689 687 686 686 685 685 684 682 682 681 681 680 679 678 677 676 675 674 673 671 670 668 665 662 661 662 662 662 661 660 658 657 654 653 653 653 653 651 649 647 646 645 643 643 642 642 641 641 640 640 640 641 641 641 642 642 643 643 644 644 645 645 646 646 646 647 647 648 649 649 650 651 651 651 652 652 653 653 654 654 655 656 656
691 690 689 688 686 685 684 683 683 682 681 680 680 679 678 677 676 675 674 673 672 671 669 668 666 664 661 660 660 661 661 661 659 657 655 653 651 651 651 651 649 647 645 644 642 641 641 640 640 639 639 638 638 639 639 640 640 641 641 641 641 642 642 643 643 643 644 644 645 645 646 646 647 648 648 649 649 650 651 651 652 652 653 654 654 655
689 688 687 686 685 683 682 681 681 680 679 678 677 676 675 674 673 673 672 671 670 669 667 666 664 662 661 659 658 659 660 659 658 656 654 651 649 649 649 649 648 646 644 642 641 640 639 639 638 638 637 637 637 637 638 638 638 638 639 639 639 639 640 640 640 641 641 641 642 643 643 644 645 645 646 646 647 648 649 650 651 651 652 652 653 653
687 686 685 685 683 682 680 679 679 678 677 676 675 674 673 671 671 670 669 668 667 666 665 664 662 660 659 657 656 657 658 658 656 655 653 650 647 646 647 647 646 644 642 640 639 638 638 637 636 636 636 636 636 636 636 636 636 636 636 636 636 637 637 637 638 638 638 639 640 640 641 641 642 643 644 645 645 646 647 648 649 650 650 651 651 652
685 683 683 683 682 680 678 676 676 676 675 674 673 672 670 669 668 667 666 666 665 664 663 661 660 658 657 656 655 655 656 656 655 654 651 648 646 644 645 645 644 642 640 638 637 636 636 636 635 634 634 634 633 633 633 633 633 633 633 634 634 634 634 635 635 635 636 636 637 638 638 639 640 641 642 643 643 644 645 646 647 648 649 650 650 651
683 681 680 680 679 678 676 674 673 673 673 672 671 670 668 667 666 665 664 663 663 661 660 659 657 656 655 654 653 653 654 654 654 652 650 647 644 642 643 643 642 641 638 636 635 635 635 634 633 632 631 631 631 631 631 631 631 631 631 631 631 631 632 632 632 633 633 634 634 635 636 637 638 639 640 641 641 642 643 644 645 646 647 648 649 649
681 679 678 677 676 675 674 672 672 671 671 670 668 666 665 664 664 663 662 661 660 659 658 656 655 654 653 652 651 651 651 651 651 651 649 646 642 640 641 642 641 639 637 635 634 633 633 632 631 630 629 629 629 629 629 629 628 628 628 628 629 629 629 629 630 630 631 631 632 632 633 634 636 636 637 638 640 641 642 643 644 645 646 646 647 648
680 678 677 676 675 673 672 671 670 668 667 665 663 662 662 661 661 660 659 659 658 657 656 655 653 652 651 650 649 649 649 649 649 648 647 644 641 639 640 640 640 638 635 633 633 632 631 630 628 628 627 627 626 626 626 626 626 626 626 626 626 626 626 626 627 627 628 628 629 630 631 632 633 634 635 636 637 639 640 641 642 643 644 645 646 646
679 677 675 674 672 671 670 668 666 665 664 663 662 661 661 660 659 658 657 656 656 655 654 653 651 649 648 647 647 646 646 647 647 647 646 643 641 639 638 639 639 636 634 632 631 631 630 628 626 626 625 624 624 624 624 623 623 623 623 623 623 623 623 624 624 625 625 626 627 627 628 630 631 632 633 634 636 637 638 640 641 641 642 643 644 645
677 675 673 672 670 669 667 666 665 664 663 662 661 660 660 659 658 657 656 655 654 654 653 651 649 647 646 646 645 645 645 645 645 645 644 643 640 638 637 637 637 636 633 631 630 630 628 626 624 623 623 622 621 621 621 621 620 620 620 620 620 621 621 621 622 622 623 623 624 625 626 627 629 630 631 632 634 635 636 638 639 640 641 642 642 643
675 673 672 670 669 667 666 665 664 662 661 661 660 659 658 657 656 656 654 654 653 653 652 650 648 646 645 644 643 643 643 644 644 643 643 643 641 638 636 636 636 635 632 630 629 628 627 625 623 621 621 620 619 618 618 618 618 618 618 618 619 619 619 619 619 620 621 621 622 623 624 625 626 628 629 631 632 633 635 636 637 638 639 640 641 641
673 672 671 669 668 666 665 664 662 661 660 659 659 658 657 657 656 654 653 652 652 652 651 649 647 645 644 642 642 641 642 642 642 642 642 642 640 637 635 635 635 634 632 629 627 626 625 623 621 620 618 617 617 616 616 616 616 616 617 617 617 617 616 616 617 617 618 619 620 620 621 623 624 626 627 629 630 631 632 634 635 637 638 639 639 640
672 670 669 667 666 665 663 662 661 660 659 658 657 657 656 656 654 653 651 651 651 651 650 648 647 646 644 642 641 641 640 640 640 641 641 641 638 635 634 634 633 632 631 629 626 624 622 621 619 618 616 616 616 616 615 615 615 615 615 614 614 614 614 614 614 615 616 616 617 618 619 620 622 623 625 626 628 629 631 632 633 635 636 637 638 638
670 668 667 666 664 663 662 661 659 658 657 656 656 655 654 654 652 651 651 651 651 650 649 647 646 645 644 643 641 639 637 637 638 639 639 638 636 634 633 632 632 632 631 631 627 623 620 617 616 616 615 615 615 615 614 614 613 613 612 612 611 611 611 611 612 612 613 614 615 616 617 618 619 621 622 624 626 627 628 630 631 633 634 635 636 637
668 667 665 664 662 661 660 659 657 656 656 655 654 653 652 651 651 650 649 649 649 649 648 647 646 645 644 643 641 638 635 635 636 637 637 636 635 633 632 632 631 631 632 632 630 626 620 616 614 614 614 614 614 613 612 612 612 611 611 610 609 609 609 609 610 610 611 611 612 613 614 616 617 619 620 622 623 625 626 628 630 631 632 634 635 636
667 665 664 662 661 660 658 657 656 655 654 653 652 651 651 650 649 649 648 648 647 647 646 645 644 643 643 642 640 637 634 634 635 636 636 636 634 632 632 631 631 631 631 631 631 628 624 618 614 612 613 613 612 611 610 610 610 610 609 608 607 607 607 607 608 608 608 609 610 611 612 613 615 616 618 620 621 623 625 626 628 630 631 633 634 634
666 664 662 661 660 658 657 656 655 654 652 651 651 650 649 648 648 647 646 646 645 645 644 644 643 642 641 640 638 635 633 633 634 635 636 635 633 631 630 630 630 629 629 629 629 628 625 621 616 613 611 611 610 609 609 608 608 608 608 607 606 605 605 605 606 606 606 607 608 609 610 611 612 614 616 617 619 621 622 624 626 628 630 631 632 633
665 663 661 660 658 657 656 655 653 652 651 650 649 648 647 646 646 645 645 644 643 643 642 642 641 640 639 637 636 633 632 632 633 634 634 633 632 630 629 628 628 628 627 627 626 625 623 621 618 615 611 609 608 607 607 607 606 606 606 606 605 605 604 604 604 605 605 606 606 606 607 608 610 611 613 615 617 619 620 622 624 626 628 630 631 631
663 662 660 659 657 656 655 653 652 651 650 649 648 647 646 645 644 643 643 642 641 641 640 639 639 638 637 636 634 631 630 630 631 632 632 631 630 629 627 626 626 626 626 625 624 623 621 620 618 616 613 609 606 605 605 605 605 605 605 605 605 604 603 603 603 603 604 604 604 605 605 606 607 609 611 612 614 616 618 620 621 624 626 627 628 629
662 661 659 658 656 655 653 652 651 650 649 648 646 646 645 644 643 642 641 640 639 639 638 637 636 636 635 634 632 630 628 628 629 630 630 629 629 627 626 625 624 624 624 624 623 622 620 618 616 615 614 611 607 604 603 603 604 604 604 603 603 603 602 602 602 602 603 603 603 602 603 604 605 606 608 609 611 613 616 617 619 621 623 625 625 626
662 660 658 657 655 654 653 651 650 649 648 646 645 644 643 642 641 640 639 638 637 636 635 635 634 633 632 631 630 628 626 626 626 627 627 627 627 626 625 623 622 623 623 622 621 620 619 617 616 614 612 611 608 605 602 602 602 602 602 602 601 601 601 600 600 600 601 601 601 600 601 601 602 604 605 607 609 611 614 616 617 619 620 621 622 624
661 659 657 656 655 653 652 650 649 648 646 645 644 642 641 640 639 638 637 636 635 634 633 632 631 630 629 628 627 626 625 624 623 624 624 624 624 623 622 621 620 620 621 620 620 619 618 617 615 612 611 608 606 605 603 602 601 601 600 600 600 599 598 598 598 598 598 598 598 598 599 600 601 602 603 605 607 609 611 613 615 616 618 619 621 622
661 659 657 655 654 652 651 650 648 647 646 644 643 641 640 639 637 636 635 634 633 632 631 630 628 627 626 625 624 624 622 621 621 621 621 621 621 620 620 619 618 617 617 618 618 617 617 615 614 611 609 607 605 603 602 602 601 600 599 599 598 597 596 596 597 597 596 596 596 596 596 597 599 600 601 603 605 606 608 610 611 613 615 617 619 620
660 658 656 655 653 652 651 649 647 646 644 643 641 640 639 637 636 635 633 632 631 630 629 627 626 625 624 623 622 621 620 619 618 618 618 617 617 617 616 616 615 615 615 615 615 615 614 613 611 610 609 607 605 602 601 600 600 600 600 598 596 595 595 595 595 594 594 593 594 594 594 595 596 598 599 601 602 603 604 606 608 610 612 615 617 619
660 658 656 654 653 651 650 648 646 645 644 642 641 639 637 636 635 633 631 630 629 628 627 626 624 623 621 620 619 618 617 616 616 615 615 614 614 614 613 613 612 612 612 612 612 611 611 610 609 608 606 606 604 602 600 598 598 598 599 598 596 594 593 593 592 591 591 591 591 591 592 593 594 596 597 598 600 601 602 604 606 608 611 613 614 616
660 658 656 654 652 650 649 647 646 644 643 641 640 638 636 635 634 632 631 629 628 626 625 624 623 621 620 618 617 616 615 614 613 612 612 611 611 611 610 610 609 609 610 609 609 608 607 607 606 605 604 604 603 601 599 596 596 596 596 596 595 594 592 590 588 588 589 589 589 589 590 591 592 593 595 596 598 600 601 603 605 606 608 610 612 613
660 658 656 654 652 650 648 646 645 643 642 640 639 637 636 634 633 631 630 628 626 625 624 623 621 620 618 616 615 613 612 611 611 610 609 608 608 607 607 606 606 606 606 606 606 605 604 604 603 602 601 601 601 600 597 595 594 594 594 594 595 594 591 587 586 587 587 587 587 588 588 589 590 591 593 594 596 598 600 601 603 604 605 606 608 610
660 658 656 653 651 649 647 646 644 642 641 639 638 636 635 633 632 631 629 627 626 624 623 621 620 619 617 615 613 611 610 609 608 607 607 606 605 605 604 604 603 603 603 603 602 601 601 601 600 599 599 599 599 598 595 593 592 591 591 592 592 592 589 587 586 586 586 586 586 586 586 587 588 590 591 593 594 596 597 598 600 601 603 604 606 607
660 657 655 653 651 649 647 645 644 642 640 639 637 635 634 632 631 630 628 626 625 623 622 621 619 617 616 613 611 610 608 607 606 605 604 604 603 602 602 601 601 601 600 600 599 599 598 597 596 596 596 597 596 595 593 591 590 589 589 589 589 588 587 586 586 586 585 585 584 584 585 586 587 588 589 590 591 593 594 595 597 599 600 602 603 605
660 657 655 653 651 649 647 645 643 642 640 638 636 635 633 632 630 629 627 626 624 623 621 620 619 617 615 612 611 609 607 605 604 603 602 601 601 600 600 599 599 598 597 596 596 595 595 594 594 594 594 594 593 591 589 588 587 587 586 586 586 586 586 585 584 583 583 583 582 582 583 584 585 586 586 586 588 589 591 592 594 595 596 598 600 602
660 657 655 653 651 649 647 645 643 641 640 638 636 634 633 631 630 628 627 625 624 622 621 619 618 616 614 612 610 609 607 605 603 601 600 599 599 598 597 597 596 596 595 594 593 592 591 591 591 591 591 591 589 587 585 585 585 584 584 584 584 584 583 582 581 580 581 581 581 581 581 582 583 583 582 583 585 587 588 590 591 592 594 596 598 601
660 658 656 653 651 649 647 645 643 641 639 637 636 634 632 631 629 628 626 625 623 622 620 618 617 615 613 611 610 608 607 605 603 601 599 598 597 596 596 595 594 593 592 591 590 589 588 587 587 587 587 587 585 583 581 581 581 581 581 581 581 581 580 578 578 578 579 579 579 579 580 580 580 579 579 581 583 585 586 587 589 590 592 594 597 600
660 658 656 654 652 650 647 645 643 641 639 637 635 633 631 630 629 627 626 624 622 621 620 618 616 614 612 611 609 607 606 604 602 601 599 597 596 595 594 593 592 591 589 588 587 586 584 583 582 581 581 581 581 579 577 577 577 578 578 578 578 577 576 575 575 576 576 576 576 576 577 577 577 577 577 578 580 581 582 584 586 588 590 593 596 599
659 658 656 654 652 650 648 646 643 641 639 637 635 633 631 629 628 626 625 624 622 621 619 618 616 614 612 610 608 606 605 603 601 599 597 596 595 593 592 591 590 589 587 586 584 582 581 579 577 576 575 575 575 575 575 574 574 575 575 575 574 573 573 572 572 573 573 573 574 574 574 575 575 576 576 576 576 577 579 581 583 586 588 591 594 596
659 657 656 654 652 650 648 646 644 642 639 637 635 633 631 629 627 626 624 623 621 620 618 617 615 614 611 609 607 605 603 602 600 598 596 594 593 592 591 589 588 587 586 584 582 580 578 576 573 571 569 569 569 570 570 571 571 571 571 570 570 570 570 569 569 569 570 571 571 571 572 573 573 573 573 573 573 575 576 578 580 582 585 588 591 593